This is the latest recevied weather packets stored in our database for station/object KE4EST. If no packets are shown the sender has not sent any weather packets the latest 10 day(s).
| Time | Temp. | Humidity | Pressure | Rain* | Wind** | Luminosity | Snow |
|---|---|---|---|---|---|---|---|
| 1777645956 | 15.56° C | 67% | 1015.2 hPa | 0 mm | - | 78 W/m² | - |
| 1777645653 | 15.56° C | 70% | 1015.1 hPa | 0 mm | - | 96 W/m² | - |
| 1777645349 | 15° C | 69% | 1014.9 hPa | 0 mm | - | 91 W/m² | - |
| 1777645044 | 14.44° C | 71% | 1015.2 hPa | 0 mm | - | 288 W/m² | - |
| 1777644742 | 15° C | 70% | 1014.8 hPa | 0 mm | - | 197 W/m² | - |
| 1777644438 | 14.44° C | 76% | 1014.9 hPa | 0 mm | - | 150 W/m² | - |
| 1777644135 | 14.44° C | 77% | 1014.7 hPa | 0 mm | - | 74 W/m² | - |
| 1777643831 | 13.89° C | 76% | 1014.8 hPa | 0 mm | - | 40 W/m² | - |
| 1777643529 | 13.33° C | 77% | 1014.8 hPa | 0 mm | - | 54 W/m² | - |
| 1777643225 | 13.33° C | 76% | 1015 hPa | 0 mm | - | 56 W/m² | - |
| 1777642922 | 12.78° C | 79% | 1014.9 hPa | 0 mm | - | 68 W/m² | - |
| 1777642618 | 12.22° C | 82% | 1015.1 hPa | 0 mm | - | 108 W/m² | - |
| 1777642315 | 11.67° C | 83% | 1014.9 hPa | 0 mm | - | 74 W/m² | - |
| 1777642012 | 11.67° C | 83% | 1015 hPa | 0 mm | - | 47 W/m² | - |
| 1777641708 | 11.11° C | 83% | 1015.2 hPa | 0 mm | - | 37 W/m² | - |
| 1777641403 | 11.11° C | 83% | 1015.2 hPa | 0 mm | - | 35 W/m² | - |
| 1777641098 | 10.56° C | 86% | 1014.9 hPa | 0 mm | - | 40 W/m² | - |
| 1777640794 | 10.56° C | 88% | 1015.1 hPa | 0 mm | - | 41 W/m² | - |
| 1777640492 | 10.56° C | 85% | 1014.8 hPa | 0 mm | - | 40 W/m² | - |
| 1777640189 | 10° C | 91% | 1014.8 hPa | 0 mm | - | 53 W/m² | - |
| 1777639885 | 9.44° C | 91% | 1014.7 hPa | 0 mm | - | 54 W/m² | - |
| 1777639583 | 8.89° C | 92% | 1014.8 hPa | 0 mm | - | 43 W/m² | - |
| 1777639280 | 8.89° C | 94% | 1015 hPa | 0 mm | - | 36 W/m² | - |
| 1777638975 | 8.33° C | 94% | 1014.7 hPa | 0 mm | - | 33 W/m² | - |
| 1777638671 | 7.78° C | 96% | 1014.8 hPa | 0 mm | - | 28 W/m² | - |
* Rain latest hour (hover to see other rain measurements)
** Current wind speed in m/s (hover to see current wind gust speed)